Klawock, AK

10:52 PM AKDT on August 18, 2017 (GMT -0800)
Klawock

Weather History for PAKW - January, 2012

Change the Weather History Date:

Friday, January 13, 2012

  Actual Average Record
Temperature  
Mean Temperature 28 °F -  
Max Temperature 33 °F 36 °F 50 °F (2014)
Min Temperature 24 °F 29 °F 12 °F (2005)
Degree Days  
Heating Degree Days 36    
Moisture  
Dew Point 28 °F    
Average Humidity 95    
Maximum Humidity 100    
Minimum Humidity 82    
Precipitation  
Precipitation 0.00 in - - ()
Sea Level Pressure  
Sea Level Pressure 29.98 in    
Wind  
Wind Speed 3 mph (SSW)    
Max Wind Speed 13 mph    
Max Gust Speed 23 mph    
Visibility 3 miles    
Events Fog , Snow    
Averages and records for this station are not official NWS values.
T = Trace of Precipitation, MM = Missing Value Source: NWS Daily Summary

Daily Weather History Graph

Daily Weather History Graph

Search for Another Location

Airport or City:

Trip Planner

Search our weather history database for the weather conditions in past years. The results will help you decide how hot, cold, wet, or windy it might be!

Date:

Astronomy

Jan. 13, 2012 Rise Set
Actual Time 8:13 AM AKST 3:48 PM AKST
Civil Twilight 7:29 AM AKST 4:33 PM AKST
Nautical Twilight 6:42 AM AKST 5:20 PM AKST
Astronomical Twilight 5:57 AM AKST 6:04 PM AKST
Moon 10:18 PM AKST (1/13) 9:30 AM AKST (1/13)
Length of Visible Light 9h 03m
Length of Day
7h 35m
Waning Gibbous, 77% of the Moon is Illuminated
Jan 13
Waning Gibbous
Jan 16
Last Quarter
Jan 22
New
Jan 30
First Quarter
Feb 7
Full

Hourly Weather History & Observations

Time (AKST) Temp. Windchill Dew Point Humidity Pressure Visibility Wind Dir Wind Speed Gust Speed Precip Events Conditions
12:00 AM 32.0 °F 28.7 °F 30.2 °F 93% 30.15 in 8.0 mi South 3.5 mph - 0.00 in Snow Light Snow
12:33 AM 32.0 °F 26.4 °F 30.2 °F 93% 30.15 in 7.0 mi South 5.8 mph - 0.00 in Snow Light Snow
12:40 AM 33.8 °F 29.6 °F 30.2 °F 87% 30.16 in 1.8 mi South 4.6 mph - 0.00 in Snow Light Snow
12:50 AM 32.0 °F 24.2 °F 30.2 °F 93% 30.17 in 0.8 mi WSW 9.2 mph 19.6 mph 0.00 in Snow Light Snow
12:53 AM 30.9 °F 22.2 °F 30.0 °F 96% 30.17 in 0.5 mi SW 10.4 mph 23.0 mph 0.00 in Fog , Snow Snow
1:00 AM 30.2 °F 24.3 °F 30.2 °F 100% 30.16 in 1.0 mi SSE 5.8 mph 23.0 mph 0.00 in Snow Light Snow
1:04 AM 30.2 °F 25.4 °F 30.2 °F 100% 30.16 in 2.5 mi Variable 4.6 mph - 0.00 in Snow Light Snow
1:08 AM 32.0 °F 28.7 °F 30.2 °F 93% 30.16 in 6.0 mi Variable 3.5 mph - 0.00 in Snow Light Snow
1:17 AM 32.0 °F 26.4 °F 30.2 °F 93% 30.16 in 10.0 mi South 5.8 mph - 0.00 in   Overcast
1:26 AM 32.0 °F 28.7 °F 30.2 °F 93% 30.17 in 1.8 mi SW 3.5 mph - 0.00 in Snow Light Snow
1:34 AM 32.0 °F 25.6 °F 30.2 °F 93% 30.16 in 1.0 mi Variable 6.9 mph - 0.00 in Snow Light Snow
1:39 AM 32.0 °F 28.7 °F 30.2 °F 93% 30.16 in 2.0 mi Variable 3.5 mph - 0.00 in Snow Light Snow
1:45 AM 32.0 °F - 30.2 °F 93% 30.16 in 4.0 mi Calm Calm - 0.00 in Snow Light Snow
1:53 AM 32.0 °F - 30.9 °F 96% 30.17 in 9.0 mi Calm Calm - 0.00 in   Overcast
2:05 AM 32.0 °F 24.2 °F 30.2 °F 93% 30.17 in 3.0 mi WSW 9.2 mph - 0.00 in Snow Light Snow
2:07 AM 32.0 °F 26.4 °F 30.2 °F 93% 30.17 in 1.2 mi WSW 5.8 mph - 0.00 in Snow Light Snow
2:09 AM 32.0 °F 25.6 °F 30.2 °F 93% 30.17 in 0.8 mi WSW 6.9 mph - 0.00 in Snow Light Snow
2:17 AM 32.0 °F 27.5 °F 30.2 °F 93% 30.17 in 0.8 mi SW 4.6 mph - 0.00 in Snow Light Snow
2:21 AM 32.0 °F 26.4 °F 30.2 °F 93% 30.17 in 1.8 mi SW 5.8 mph - 0.00 in Snow Light Snow
2:23 AM 32.0 °F 27.5 °F 30.2 °F 93% 30.17 in 3.0 mi Variable 4.6 mph - 0.00 in Snow Light Snow
2:35 AM 30.2 °F 26.7 °F 30.2 °F 100% 30.16 in 10.0 mi South 3.5 mph - 0.00 in   Overcast
3:53 AM 30.9 °F 21.2 °F 30.0 °F 96% 30.16 in 1.0 mi WSW 12.7 mph 18.4 mph 0.00 in Snow Light Snow
3:56 AM 30.2 °F 21.3 °F 30.2 °F 100% 30.16 in 0.8 mi WSW 10.4 mph 18.4 mph 0.00 in Snow Light Snow
4:04 AM 30.2 °F 25.4 °F 28.4 °F 93% 30.15 in 0.8 mi SSE 4.6 mph - 0.00 in Snow Light Snow
4:07 AM 30.2 °F 26.7 °F 28.4 °F 93% 30.14 in 1.5 mi Variable 3.5 mph - 0.00 in Snow Light Snow
4:09 AM 30.2 °F 24.3 °F 28.4 °F 93% 30.14 in 3.0 mi SE 5.8 mph - 0.00 in Snow Light Snow
4:27 AM 30.2 °F 25.4 °F 28.4 °F 93% 30.14 in 10.0 mi SSW 4.6 mph - 0.00 in   Mostly Cloudy
4:53 AM 30.9 °F 27.5 °F 26.1 °F 82% 30.13 in 10.0 mi Variable 3.5 mph - 0.00 in   Overcast
5:53 AM 30.0 °F - 26.1 °F 85% 30.10 in 10.0 mi Calm Calm - N/A   Scattered Clouds
6:53 AM 30.0 °F - 27.0 °F 88% 30.08 in 10.0 mi Calm Calm - N/A   Mostly Cloudy
7:49 AM 30.2 °F 24.3 °F 28.4 °F 93% 30.09 in 3.0 mi SSW 5.8 mph - 0.00 in Snow Light Snow
7:53 AM 30.9 °F 25.2 °F 28.9 °F 92% 30.09 in 1.5 mi SW 5.8 mph - 0.00 in Snow Light Snow
7:56 AM 30.2 °F 24.3 °F 28.4 °F 93% 30.09 in 0.8 mi SW 5.8 mph - 0.00 in Snow Light Snow
8:03 AM 30.2 °F 25.4 °F 30.2 °F 100% 30.09 in 0.5 mi Variable 4.6 mph - 0.00 in Fog , Snow Snow
8:41 AM 30.2 °F 23.4 °F 30.2 °F 100% 30.07 in 1.0 mi SE 6.9 mph - 0.00 in Snow Light Snow
8:51 AM 30.2 °F 26.7 °F 30.2 °F 100% 30.07 in 0.8 mi Variable 3.5 mph - 0.00 in Snow Light Snow
8:53 AM 30.9 °F 27.5 °F 30.0 °F 96% 30.08 in 0.8 mi SE 3.5 mph - 0.00 in Snow Light Snow
8:55 AM 30.2 °F 23.4 °F 30.2 °F 100% 30.07 in 1.0 mi SSE 6.9 mph - 0.00 in Snow Light Snow
9:03 AM 30.2 °F 25.4 °F 30.2 °F 100% 30.07 in 1.5 mi SSE 4.6 mph - 0.00 in Snow Light Snow
9:14 AM 30.2 °F - 30.2 °F 100% 30.06 in 0.8 mi Calm Calm - 0.00 in Snow Light Snow
9:32 AM 30.2 °F - 30.2 °F 100% 30.07 in 0.5 mi Calm Calm - 0.00 in Fog , Snow Snow
9:53 AM 30.9 °F 26.2 °F 30.0 °F 96% 30.06 in 0.5 mi North 4.6 mph - 0.00 in Fog , Snow Snow
10:22 AM 30.2 °F 25.4 °F 30.2 °F 100% 30.05 in 0.2 mi NE 4.6 mph - 0.00 in Fog , Snow Heavy Snow
10:34 AM 30.2 °F - 30.2 °F 100% 30.04 in 0.5 mi Calm Calm - 0.00 in Fog , Snow Snow
10:46 AM 30.2 °F - 30.2 °F 100% 30.04 in 0.5 mi Calm Calm - 0.00 in Fog , Snow Snow
10:53 AM 30.9 °F - 30.0 °F 96% 30.04 in 1.2 mi Calm Calm - 0.00 in Snow Light Snow
11:01 AM 30.2 °F 25.4 °F 30.2 °F 100% 30.03 in 2.0 mi NNE 4.6 mph - 0.00 in Snow Light Snow
11:16 AM 30.2 °F - 30.2 °F 100% 30.03 in 1.2 mi Calm Calm - 0.00 in Snow Light Snow
11:25 AM 30.2 °F - 30.2 °F 100% 30.02 in 0.5 mi Calm Calm - 0.00 in Fog , Snow Snow
11:33 AM 30.2 °F - 30.2 °F 100% 30.02 in 0.2 mi Calm Calm - 0.00 in Fog , Snow Heavy Snow
11:53 AM 30.9 °F - 30.9 °F 100% 30.01 in 0.5 mi Calm Calm - 0.00 in Fog , Snow Snow
12:01 PM 30.2 °F 26.7 °F 30.2 °F 100% 30.00 in 1.0 mi Variable 3.5 mph - 0.00 in Snow Light Snow
12:08 PM 30.2 °F - 30.2 °F 100% 30.00 in 1.8 mi Calm Calm - 0.00 in Snow Light Snow
12:18 PM 30.2 °F 25.4 °F 30.2 °F 100% 30.00 in 1.0 mi South 4.6 mph - 0.00 in Snow Light Snow
12:24 PM 30.2 °F 25.4 °F 28.4 °F 93% 30.00 in 0.5 mi South 4.6 mph - 0.00 in Fog , Snow Snow
12:35 PM 30.2 °F - 28.4 °F 93% 29.99 in 0.2 mi Calm Calm - 0.00 in Fog , Snow Snow
12:53 PM 30.0 °F - 28.9 °F 96% 29.97 in 1.0 mi Calm Calm - 0.00 in Snow Light Snow
12:57 PM 30.2 °F 26.7 °F 28.4 °F 93% 29.96 in 2.0 mi NNW 3.5 mph - 0.00 in Snow Light Snow
1:05 PM 30.2 °F 25.4 °F 28.4 °F 93% 29.96 in 9.0 mi NW 4.6 mph - 0.00 in   Scattered Clouds
1:43 PM 30.2 °F - 30.2 °F 100% 29.94 in 2.5 mi Calm Calm - 0.00 in Snow Light Snow
1:53 PM 30.9 °F - 28.9 °F 92% 29.94 in 2.0 mi Calm Calm - 0.00 in Snow Light Snow
2:05 PM 30.2 °F - 28.4 °F 93% 29.93 in 3.0 mi Calm Calm - 0.00 in Snow Light Snow
2:53 PM 30.0 °F - 28.0 °F 92% 29.91 in 6.0 mi Calm Calm - 0.00 in Snow Light Snow
3:11 PM 30.2 °F - 28.4 °F 93% 29.90 in 2.0 mi Calm Calm - 0.00 in Snow Light Snow
3:14 PM 30.2 °F - 28.4 °F 93% 29.90 in 1.2 mi Calm Calm - 0.00 in Snow Light Snow
3:23 PM 30.2 °F - 28.4 °F 93% 29.90 in 0.8 mi Calm Calm - 0.00 in Snow Light Snow
3:29 PM 30.2 °F - 28.4 °F 93% 29.90 in 1.5 mi Calm Calm - 0.00 in Snow Light Snow
3:32 PM 30.2 °F 26.7 °F 28.4 °F 93% 29.89 in 3.0 mi NNE 3.5 mph - 0.00 in Snow Light Snow
3:37 PM 30.2 °F - 28.4 °F 93% 29.89 in 1.8 mi Calm Calm - 0.00 in Snow Light Snow
3:46 PM 30.2 °F - 28.4 °F 93% 29.89 in 1.0 mi Calm Calm - 0.00 in Snow Light Snow
3:53 PM 30.0 °F - 28.9 °F 96% 29.89 in 0.8 mi Calm Calm - 0.00 in Snow Light Snow
4:02 PM 30.2 °F - 28.4 °F 93% 29.89 in 1.5 mi Calm Calm - 0.00 in Snow Light Snow
4:09 PM 30.2 °F - 28.4 °F 93% 29.88 in 3.0 mi Calm Calm - 0.00 in Snow Light Snow
4:24 PM 30.2 °F 26.7 °F 28.4 °F 93% 29.88 in 2.0 mi NNW 3.5 mph - 0.00 in Snow Light Snow
4:33 PM 30.2 °F 26.7 °F 28.4 °F 93% 29.88 in 1.8 mi West 3.5 mph - 0.00 in Snow Light Snow
4:38 PM 30.2 °F 25.4 °F 28.4 °F 93% 29.88 in 0.8 mi West 4.6 mph - 0.00 in Snow Light Snow
4:53 PM 30.0 °F - 28.9 °F 96% 29.88 in 0.2 mi Calm Calm - 0.00 in Fog , Snow Heavy Snow
5:09 PM 28.4 °F - 28.4 °F 100% 29.87 in 1.0 mi Calm Calm - 0.00 in Snow Light Snow
5:12 PM 28.4 °F - 28.4 °F 100% 29.86 in 1.8 mi Calm Calm - 0.00 in Snow Light Snow
5:24 PM 28.4 °F 24.6 °F 28.4 °F 100% 29.86 in 9.0 mi NNE 3.5 mph - 0.00 in   Overcast
5:51 PM 28.4 °F - 28.4 °F 100% 29.85 in 1.8 mi Calm Calm - 0.00 in Snow Light Snow
5:53 PM 28.9 °F 25.2 °F 28.9 °F 100% 29.85 in 1.8 mi NE 3.5 mph - 0.00 in Snow Light Snow
6:04 PM 28.4 °F - 28.4 °F 100% 29.84 in 1.2 mi Calm Calm - 0.00 in Snow Light Snow
6:08 PM 28.4 °F - 26.6 °F 93% 29.84 in 2.0 mi Calm Calm - 0.00 in Snow Light Snow
6:17 PM 28.4 °F - 28.4 °F 100% 29.84 in 6.0 mi Calm Calm - 0.00 in Snow Light Snow
6:24 PM 28.4 °F - 26.6 °F 93% 29.83 in 9.0 mi Calm Calm - 0.00 in   Overcast
6:53 PM 28.0 °F - 27.0 °F 96% 29.83 in 10.0 mi Calm Calm - 0.00 in   Mostly Cloudy
7:53 PM 28.9 °F - 28.0 °F 96% 29.83 in 4.0 mi Calm Calm - 0.00 in Snow Light Snow
8:02 PM 28.4 °F - 28.4 °F 100% 29.82 in 1.8 mi Calm Calm - 0.00 in Snow Light Snow
8:22 PM 28.4 °F - 28.4 °F 100% 29.81 in 3.0 mi Calm Calm - 0.00 in Snow Light Snow
8:38 PM 28.4 °F - 28.4 °F 100% 29.81 in 2.0 mi Calm Calm - 0.00 in Snow Light Snow
8:53 PM 28.9 °F - 28.0 °F 96% 29.81 in 2.5 mi Calm Calm - 0.00 in Snow Light Snow
9:00 PM 28.4 °F - 28.4 °F 100% 29.80 in 4.0 mi Calm Calm - 0.00 in Snow Light Snow
9:13 PM 26.6 °F - 26.6 °F 100% 29.80 in 5.0 mi Calm Calm - 0.00 in Snow Light Snow
9:25 PM 26.6 °F - 26.6 °F 100% 29.80 in 6.0 mi Calm Calm - 0.00 in   Overcast
9:40 PM 26.6 °F - 26.6 °F 100% 29.79 in 2.0 mi Calm Calm - 0.00 in   Scattered Clouds
9:53 PM 27.0 °F - 25.0 °F 92% 29.80 in 2.0 mi Calm Calm - 0.00 in   Mostly Cloudy
9:59 PM 26.6 °F - 24.8 °F 93% 29.79 in 1.8 mi Calm Calm - N/A   Scattered Clouds
10:09 PM 26.6 °F - 24.8 °F 93% 29.79 in 1.2 mi Calm Calm - N/A   Mostly Cloudy
10:16 PM 26.6 °F - 24.8 °F 93% 29.79 in 2.0 mi Calm Calm - N/A   Mostly Cloudy
10:19 PM 26.6 °F - 24.8 °F 93% 29.79 in 1.2 mi Calm Calm - N/A   Mostly Cloudy
10:29 PM 26.6 °F - 24.8 °F 93% 29.79 in 0.5 mi Calm Calm - N/A Fog Light Freezing Fog
10:53 PM 26.1 °F - 25.0 °F 96% 29.79 in 0.5 mi Calm Calm - N/A Fog Light Freezing Fog
11:00 PM 26.6 °F - 24.8 °F 93% 29.79 in 1.8 mi Calm Calm - N/A   Mostly Cloudy
11:03 PM 26.6 °F - 24.8 °F 93% 29.79 in 3.0 mi Calm Calm - N/A   Mostly Cloudy
11:13 PM 24.8 °F - 24.8 °F 100% 29.79 in 4.0 mi Calm Calm - N/A   Scattered Clouds
11:15 PM 24.8 °F - 23.0 °F 93% 29.79 in 1.8 mi Calm Calm - N/A   Scattered Clouds
11:18 PM 24.8 °F - 23.0 °F 93% 29.79 in 1.2 mi Calm Calm - N/A   Mostly Cloudy
11:24 PM 24.8 °F - 24.8 °F 100% 29.79 in 1.8 mi Calm Calm - N/A   Scattered Clouds
11:26 PM 24.8 °F - 23.0 °F 93% 29.79 in 4.0 mi Calm Calm - N/A   Scattered Clouds
11:53 PM 25.0 °F - 23.0 °F 92% 29.79 in 10.0 mi Calm Calm - N/A   Scattered Clouds